Location: Bluff Heights
(33.7692°N, 118.1592°W)
Time: 17:03:31
(UTC+00:00)

AO-73 - Pass Details

Date: 02 October 2021
Orbit: 580 x 662 km, 97.6° (Epoch: 19 October)

Event Time Altitude Azimuth Distance (km) Brightness Sun altitude
Rises 12:08:50 0° 18° (NNE) 2,821 ? -21.4°
Reaches altitude 10° 12:11:04 10° 23° (NNE) 1,910 ? -20.9°
Maximum altitude 12:15:05 50° 100° (E) 743 ? -20.1°
Drops below altitude 10° 12:19:02 10° 176° (S) 1,886 ? -19.3°
Sets 12:21:13 0° 181° (S) 2,782 ? -18.8°
